�������l�o���
Date,Time,MP-1(��Sv/h),MP-2(��Sv/h),MP-3(��Sv/h),MP-4(��Sv/h),MP-5(��Sv/h),MP-6(��Sv/h),MP-7(��Sv/h),MP-8(��Sv/h),����,����(m/s),���J
2021/02/10,00:00,0.668,0.964,0.613,1.215,0.858,0.379,0.672,0.632,�쓌,0.8,��
2021/02/10,00:10,0.669,0.964,0.611,1.216,0.855,0.378,0.670,0.633,��쐼,1.4,��
2021/02/10,00:20,0.668,0.963,0.612,1.213,0.858,0.378,0.671,0.632,��,4.1,��
2021/02/10,00:30,0.670,0.964,0.612,1.216,0.858,0.378,0.671,0.633,���k��,3.7,��
2021/02/10,00:40,0.667,0.963,0.610,1.218,0.857,0.377,0.671,0.635,���k��,5.6,��
2021/02/10,00:50,0.667,0.966,0.612,1.216,0.858,0.379,0.671,0.631,���k��,6.2,��
2021/02/10,01:00,0.667,0.963,0.611,1.217,0.857,0.378,0.671,0.631,�k��,5.5,��
2021/02/10,01:10,0.667,0.964,0.610,1.219,0.857,0.379,0.671,0.632,�k�k��,3.6,��
2021/02/10,01:20,0.668,0.966,0.611,1.216,0.855,0.377,0.671,0.633,�k�k��,3.5,��
2021/02/10,01:30,0.668,0.964,0.610,1.216,0.858,0.378,0.671,0.632,�k�k��,3.2,��
2021/02/10,01:40,0.668,0.964,0.612,1.215,0.856,0.377,0.673,0.633,�k�k��,2.9,��
2021/02/10,01:50,0.667,0.961,0.610,1.216,0.856,0.377,0.672,0.633,�k�k��,1.5,��
2021/02/10,02:00,0.668,0.963,0.610,1.216,0.856,0.380,0.670,0.631,���k��,1.7,��
2021/02/10,02:10,0.666,0.962,0.609,1.216,0.856,0.379,0.671,0.632,�k,1.7,��
2021/02/10,02:20,0.667,0.964,0.610,1.213,0.857,0.378,0.670,0.633,�k,2.2,��
2021/02/10,02:30,0.666,0.963,0.610,1.214,0.856,0.377,0.671,0.632,�k,3.4,��
2021/02/10,02:40,0.667,0.964,0.613,1.216,0.856,0.379,0.671,0.633,�k�k��,3.3,��
2021/02/10,02:50,0.666,0.962,0.611,1.216,0.857,0.378,0.671,0.631,�k�k��,2.3,��
2021/02/10,03:00,0.667,0.963,0.611,1.216,0.858,0.378,0.670,0.631,�k�k��,3.1,��
2021/02/10,03:10,0.667,0.966,0.610,1.216,0.856,0.378,0.670,0.632,�k�k��,3.5,��
2021/02/10,03:20,0.668,0.962,0.611,1.215,0.858,0.378,0.669,0.632,�k�k��,4.7,��
2021/02/10,03:30,0.668,0.962,0.610,1.216,0.856,0.379,0.670,0.633,���k��,2.2,��
2021/02/10,03:40,0.668,0.963,0.610,1.216,0.857,0.377,0.670,0.633,��,1.2,��
2021/02/10,03:50,0.668,0.965,0.611,1.215,0.856,0.379,0.669,0.630,��,0.9,��
2021/02/10,04:00,0.666,0.961,0.610,1.217,0.858,0.378,0.670,0.629,���k��,0.9,��
2021/02/10,04:10,0.668,0.962,0.611,1.218,0.855,0.378,0.670,0.632,�k��,0.6,��
2021/02/10,04:20,0.665,0.964,0.609,1.213,0.855,0.378,0.672,0.631,�k��,1.2,��
2021/02/10,04:30,0.667,0.963,0.608,1.217,0.857,0.376,0.670,0.631,�k,1.5,��
2021/02/10,04:40,0.667,0.966,0.610,1.217,0.857,0.378,0.671,0.631,�k��,1.4,��
2021/02/10,04:50,0.666,0.963,0.609,1.213,0.856,0.379,0.670,0.632,�k��,2.3,��
2021/02/10,05:00,0.668,0.962,0.608,1.213,0.857,0.378,0.670,0.631,���k��,3.9,��
2021/02/10,05:10,0.667,0.962,0.609,1.215,0.858,0.378,0.669,0.631,��,3.4,��
2021/02/10,05:20,0.667,0.962,0.610,1.215,0.858,0.377,0.670,0.632,�쐼,2.9,��
2021/02/10,05:30,0.666,0.961,0.609,1.217,0.856,0.377,0.672,0.632,�쐼,2.3,��
2021/02/10,05:40,0.667,0.963,0.610,1.215,0.858,0.377,0.670,0.632,�쐼,2.0,��
2021/02/10,05:50,0.666,0.962,0.610,1.216,0.856,0.378,0.670,0.633,��쐼,2.3,��
2021/02/10,06:00,0.667,0.963,0.610,1.213,0.858,0.379,0.670,0.634,��,2.9,��
2021/02/10,06:10,0.667,0.963,0.611,1.215,0.857,0.379,0.670,0.631,��,3.0,��
2021/02/10,06:20,0.667,0.963,0.611,1.214,0.856,0.378,0.669,0.632,��쓌,2.5,��
2021/02/10,06:30,0.667,0.963,0.611,1.217,0.856,0.379,0.670,0.633,��쐼,2.0,��
2021/02/10,06:40,0.669,0.961,0.609,1.216,0.856,0.379,0.672,0.631,��쐼,2.3,��
2021/02/10,06:50,0.667,0.963,0.610,1.215,0.856,0.376,0.670,0.631,��쐼,2.5,��
2021/02/10,07:00,0.667,0.963,0.611,1.214,0.855,0.379,0.670,0.631,�쐼,3.4,��
2021/02/10,07:10,0.667,0.963,0.611,1.216,0.857,0.378,0.671,0.631,��쐼,4.3,��
2021/02/10,07:20,0.668,0.962,0.610,1.214,0.855,0.378,0.671,0.632,��,4.3,��
2021/02/10,07:30,0.667,0.962,0.610,1.215,0.859,0.376,0.670,0.632,��,4.6,��
2021/02/10,07:40,0.667,0.964,0.609,1.216,0.856,0.378,0.670,0.632,��,4.9,��
2021/02/10,07:50,0.668,0.963,0.609,1.215,0.856,0.379,0.672,0.632,��쐼,4.4,��
2021/02/10,08:00,0.668,0.963,0.610,1.216,0.857,0.377,0.669,0.631,�쐼,3.8,��
2021/02/10,08:10,0.670,0.962,0.611,1.215,0.857,0.378,0.671,0.632,�쐼,3.5,��
2021/02/10,08:20,0.669,0.962,0.611,1.216,0.857,0.377,0.671,0.632,�쐼,3.4,��
2021/02/10,08:30,0.670,0.963,0.612,1.216,0.854,0.377,0.672,0.632,�쐼,3.1,��
2021/02/10,08:40,0.668,0.963,0.611,1.216,0.854,0.377,0.671,0.632,���쐼,2.3,��
2021/02/10,08:50,0.669,0.963,0.611,1.216,0.857,0.377,0.671,0.632,��쐼,2.6,��
2021/02/10,09:00,0.669,0.963,0.611,1.216,0.857,0.378,0.674,0.633,��쐼,2.2,��
2021/02/10,09:10,0.671,0.963,0.612,1.216,0.856,0.379,0.673,0.632,��쐼,1.7,��
2021/02/10,09:20,0.670,0.960,0.611,1.215,0.856,0.379,0.673,0.632,��쐼,2.8,��
2021/02/10,09:30,0.671,0.960,0.611,1.216,0.857,0.379,0.673,0.633,���쐼,3.2,��
2021/02/10,09:40,0.670,0.961,0.609,1.214,0.858,0.378,0.671,0.633,���쐼,3.9,��
2021/02/10,09:50,0.670,0.961,0.612,1.217,0.858,0.377,0.672,0.634,�쐼,3.6,��
2021/02/10,10:00,0.670,0.960,0.612,1.218,0.857,0.378,0.671,0.631,��,2.3,��
2021/02/10,10:10,0.669,0.959,0.612,1.217,0.858,0.379,0.671,0.632,���쐼,6.4,��
2021/02/10,10:20,0.672,0.960,0.611,1.217,0.858,0.380,0.670,0.632,��,6.1,��
2021/02/10,10:30,0.672,0.958,0.613,1.214,0.858,0.379,0.671,0.633,��,7.6,��
2021/02/10,10:40,0.671,0.963,0.611,1.218,0.858,0.380,0.671,0.633,��,7.0,��
2021/02/10,10:50,0.673,0.961,0.611,1.217,0.859,0.378,0.670,0.634,��,7.3,��
2021/02/10,11:00,0.672,0.963,0.612,1.218,0.860,0.378,0.671,0.634,��,10.3,��
2021/02/10,11:10,0.672,0.962,0.611,1.220,0.858,0.379,0.671,0.633,��,10.5,��
2021/02/10,11:20,0.671,0.960,0.612,1.218,0.859,0.378,0.670,0.633,���쐼,10.3,��
2021/02/10,11:30,0.669,0.962,0.611,1.217,0.859,0.379,0.672,0.633,���쐼,10.6,��
2021/02/10,11:40,0.669,0.962,0.613,1.217,0.858,0.379,0.672,0.633,���쐼,10.5,��
2021/02/10,11:50,0.672,0.963,0.611,1.219,0.859,0.379,0.671,0.633,���쐼,10.5,��
2021/02/10,12:00,0.670,0.964,0.612,1.221,0.858,0.379,0.671,0.633,��,8.7,��
2021/02/10,12:10,0.669,0.963,0.613,1.220,0.861,0.379,0.672,0.633,��,10.0,��
2021/02/10,12:20,0.672,0.964,0.613,1.218,0.859,0.380,0.671,0.635,��,8.1,��
2021/02/10,12:30,0.671,0.963,0.612,1.220,0.860,0.379,0.671,0.634,��,9.2,��
2021/02/10,12:40,0.673,0.964,0.613,1.218,0.857,0.380,0.672,0.634,���쐼,6.7,��
2021/02/10,12:50,0.670,0.963,0.613,1.217,0.857,0.380,0.669,0.633,���쐼,7.0,��
2021/02/10,13:00,0.671,0.962,0.613,1.219,0.857,0.381,0.672,0.633,���쐼,8.4,��
2021/02/10,13:10,0.673,0.962,0.612,1.220,0.858,0.380,0.671,0.634,��,11.0,��
2021/02/10,13:20,0.672,0.961,0.612,1.222,0.862,0.380,0.672,0.632,���쐼,10.2,��
2021/02/10,13:30,0.673,0.962,0.614,1.221,0.862,0.381,0.672,0.635,��,10.5,��
2021/02/10,13:40,0.671,0.962,0.615,1.221,0.860,0.380,0.672,0.633,��,9.0,��
2021/02/10,13:50,0.674,0.961,0.613,1.221,0.861,0.384,0.671,0.635,���쐼,11.4,��
2021/02/10,14:00,0.673,0.965,0.614,1.220,0.860,0.382,0.672,0.635,���쐼,9.9,��
2021/02/10,14:10,0.673,0.964,0.612,1.222,0.863,0.381,0.672,0.634,���쐼,10.7,��
2021/02/10,14:20,0.674,0.963,0.614,1.222,0.859,0.381,0.673,0.635,���쐼,9.6,��
2021/02/10,14:30,0.671,0.964,0.613,1.220,0.860,0.382,0.671,0.634,���쐼,9.0,��
2021/02/10,14:40,0.673,0.962,0.614,1.220,0.860,0.382,0.672,0.631,���쐼,10.5,��
2021/02/10,14:50,0.672,0.963,0.612,1.221,0.861,0.382,0.673,0.632,���쐼,10.9,��
2021/02/10,15:00,0.673,0.963,0.614,1.222,0.860,0.381,0.672,0.632,���쐼,10.3,��
2021/02/10,15:10,0.672,0.961,0.612,1.221,0.860,0.381,0.673,0.630,��,10.6,��
2021/02/10,15:20,0.671,0.961,0.613,1.219,0.860,0.382,0.673,0.630,���쐼,8.7,��
2021/02/10,15:30,0.672,0.963,0.613,1.221,0.861,0.382,0.671,0.635,���쐼,9.6,��
2021/02/10,15:40,0.672,0.964,0.614,1.222,0.858,0.382,0.674,0.635,���쐼,9.5,��
2021/02/10,15:50,0.673,0.967,0.613,1.224,0.861,0.381,0.673,0.633,���쐼,10.2,��
2021/02/10,16:00,0.672,0.967,0.615,1.220,0.858,0.381,0.674,0.635,��,9.8,��
2021/02/10,16:10,0.672,0.969,0.614,1.221,0.861,0.379,0.675,0.633,���쐼,6.6,��
2021/02/10,16:20,0.673,0.970,0.615,1.221,0.860,0.380,0.675,0.634,��,8.1,��
2021/02/10,16:30,0.673,0.967,0.615,1.221,0.859,0.382,0.676,0.633,��,8.4,��
2021/02/10,16:40,0.672,0.967,0.613,1.222,0.859,0.380,0.674,0.634,��,10.0,��
2021/02/10,16:50,0.673,0.967,0.612,1.220,0.860,0.380,0.675,0.634,��,8.0,��
2021/02/10,17:00,0.673,0.966,0.614,1.221,0.860,0.382,0.675,0.635,���쐼,10.2,��
2021/02/10,17:10,0.673,0.966,0.615,1.219,0.860,0.380,0.672,0.634,���쐼,8.4,��
2021/02/10,17:20,0.671,0.966,0.614,1.221,0.860,0.381,0.675,0.635,���쐼,7.0,��
2021/02/10,17:30,0.673,0.966,0.616,1.223,0.861,0.380,0.677,0.635,���쐼,8.0,��
2021/02/10,17:40,0.672,0.965,0.614,1.220,0.862,0.380,0.674,0.634,���쐼,7.8,��
2021/02/10,17:50,0.673,0.968,0.613,1.220,0.861,0.381,0.675,0.633,��,6.7,��
2021/02/10,18:00,0.672,0.967,0.613,1.220,0.860,0.379,0.674,0.633,���쐼,5.6,��
2021/02/10,18:10,0.672,0.966,0.615,1.220,0.863,0.380,0.674,0.635,���쐼,6.7,��
2021/02/10,18:20,0.671,0.967,0.614,1.220,0.863,0.380,0.674,0.635,�쐼,5.7,��
2021/02/10,18:30,0.673,0.966,0.614,1.219,0.862,0.382,0.674,0.634,���쐼,5.4,��
2021/02/10,18:40,0.672,0.967,0.613,1.220,0.862,0.379,0.675,0.635,�쐼,4.6,��
2021/02/10,18:50,0.674,0.967,0.615,1.218,0.862,0.381,0.675,0.634,��쐼,3.5,��
2021/02/10,19:00,0.673,0.967,0.614,1.220,0.861,0.380,0.674,0.633,���쐼,2.6,��
2021/02/10,19:10,0.672,0.967,0.614,1.220,0.863,0.380,0.677,0.633,��,3.6,��
2021/02/10,19:20,0.672,0.967,0.613,1.221,0.862,0.381,0.673,0.634,��,1.7,��
2021/02/10,19:30,0.671,0.967,0.616,1.219,0.861,0.381,0.674,0.635,���쐼,0.9,��
2021/02/10,19:40,0.673,0.965,0.613,1.219,0.861,0.382,0.673,0.634,��,1.7,��
2021/02/10,19:50,0.672,0.966,0.614,1.221,0.861,0.380,0.674,0.634,-,CALM,��
2021/02/10,20:00,0.672,0.965,0.614,1.222,0.861,0.381,0.674,0.633,���k��,0.6,��
2021/02/10,20:10,0.671,0.964,0.614,1.223,0.861,0.381,0.675,0.633,�쐼,2.0,��
2021/02/10,20:20,0.673,0.968,0.615,1.221,0.864,0.380,0.675,0.634,��,2.6,��
2021/02/10,20:30,0.671,0.965,0.614,1.219,0.861,0.380,0.673,0.634,��쐼,3.9,��
2021/02/10,20:40,0.672,0.966,0.614,1.219,0.862,0.380,0.674,0.634,�쐼,3.5,��
2021/02/10,20:50,0.673,0.968,0.613,1.219,0.861,0.381,0.673,0.634,���쐼,4.8,��
2021/02/10,21:00,0.673,0.966,0.614,1.220,0.860,0.381,0.674,0.632,���쐼,3.9,��
2021/02/10,21:10,0.672,0.966,0.614,1.220,0.861,0.380,0.673,0.634,�쐼,2.5,��
2021/02/10,21:20,0.672,0.968,0.615,1.222,0.861,0.381,0.674,0.633,�쐼,2.5,��
2021/02/10,21:30,0.671,0.966,0.614,1.221,0.862,0.379,0.673,0.634,�쐼,2.2,��
2021/02/10,21:40,0.671,0.965,0.614,1.218,0.861,0.381,0.673,0.634,���쐼,2.0,��
2021/02/10,21:50,0.672,0.966,0.613,1.218,0.861,0.380,0.674,0.633,��쐼,2.6,��
2021/02/10,22:00,0.671,0.966,0.615,1.219,0.860,0.382,0.673,0.634,�쐼,3.6,��
2021/02/10,22:10,0.672,0.964,0.613,1.220,0.861,0.381,0.674,0.634,���쐼,4.3,��
2021/02/10,22:20,0.673,0.968,0.613,1.219,0.862,0.381,0.675,0.635,�쐼,6.0,��
2021/02/10,22:30,0.673,0.967,0.614,1.220,0.860,0.381,0.673,0.634,���쐼,4.2,��
2021/02/10,22:40,0.673,0.966,0.614,1.221,0.862,0.380,0.673,0.633,��,3.0,��
2021/02/10,22:50,0.672,0.967,0.615,1.220,0.862,0.381,0.675,0.633,���쐼,5.0,��
2021/02/10,23:00,0.674,0.966,0.615,1.222,0.862,0.382,0.672,0.634,��,6.7,��
2021/02/10,23:10,0.672,0.967,0.614,1.221,0.861,0.381,0.674,0.635,��,7.5,��
2021/02/10,23:20,0.671,0.966,0.614,1.219,0.861,0.381,0.674,0.635,��,7.1,��
2021/02/10,23:30,0.673,0.967,0.614,1.221,0.861,0.379,0.673,0.634,���k��,4.6,��
2021/02/10,23:40,0.672,0.967,0.614,1.221,0.861,0.380,0.674,0.633,��,3.3,��
2021/02/10,23:50,0.672,0.967,0.613,1.223,0.860,0.380,0.674,0.637,���k��,3.8,��
